Location: East Horndon
(51.5667°N, 0.3500°E)
Time: 11:50:52
(UTC+00:00)

NOSS 3-1 (C) - Pass Details

Date: 08 November 2025
Orbit: 619 x 1583 km, 63.4° (Epoch: 01 December)

Event Time Altitude Azimuth Distance (km) Brightness Sun altitude
Exits shadow 06:14:51 - 258° (WSW) 2,504 5.1 -8.1°
Reaches altitude 10° 06:15:38 10° 261° (W) 2,222 4.8 -8.0°
Maximum altitude 06:20:26 42° 333° (NNW) 1,175 3.7 -7.2°
Drops below altitude 10° 06:26:23 10° 43° (NE) 2,754 6.2 -6.4°
Sets 06:29:28 0° 51° (NE) 3,875 7.1 -5.9°
